Regional Weather Roundup
Issued by NWS

Home | Current Version | Previous Version | Graphics & Text | Print | Product List | Glossary On
Versions: 1 2 3 4 5 6 7 8 9 10 11 12 13 14 15 16 17 18 19 20 21 22 23 24 25 26 27 28 29 30 31 32 33 34 35 36 37 38 39 40 41 42 43 44 45 46 47 48 49 50
225
ASUS43 KLMK 142302
RWRKY
KENTUCKY REGIONAL WEATHER ROUNDUP
NATIONAL WEATHER SERVICE LOUISVILLE KY
600 PM EST THU DEC 14 2017

NOTE "FAIR" INDICATES FEW OR NO CLOUDS BELOW 12,000 FEET
WITH NO SIGNIFICANT WEATHER AND/OR OBSTRUCTIONS TO VISIBILITY.

KYZ001>023-026-027-061>063-070>075-150000-
WESTERN AND SOUTH CENTRAL KENTUCKY

CITY           SKY/WX    TMP DP  RH WIND       PRES   REMARKS
PADUCAH        CLOUDY    35  20  54 N6        30.09S WCI  30
HENDERSON      CLOUDY    33  22  63 CALM      30.10R
OWENSBORO      NOT AVBL
HOPKINSVILLE   CLOUDY    33  21  60 W8        30.07R WCI  27
BOWLING GREEN  CLOUDY    36  25  64 SW6       30.06R WCI  31
GLASGOW        NOT AVBL
$$

KYZ024-025-028>034-038-045-046-053-150000-
NORTH CENTRAL KENTUCKY

CITY           SKY/WX    TMP DP  RH WIND       PRES   REMARKS
LOUISVILLE/SDF CLOUDY    31  18  58 W7        30.07R WCI  24
LOUISVILLE/LOU CLOUDY    32  16  51 W3        30.07R
FORT KNOX      CLOUDY    30  19  62 N3        30.04R
$$

KYZ035>037-039>044-047>052-055>060-089>105-150000-
NORTHEAST KENTUCKY

CITY           SKY/WX    TMP DP  RH WIND       PRES   REMARKS
LEXINGTON      CLOUDY    33  16  49 N3        30.02F
COVINGTON      CLOUDY    25  17  72 N6        30.06R WCI  18
FRANKFORT      CLOUDY    32  16  51 N3        30.03R
$$

KYZ054-064>069-076>088-106>120-150000-
SOUTHEAST KENTUCKY

CITY           SKY/WX    TMP DP  RH WIND       PRES   REMARKS
JACKSON        CLOUDY    32  20  61 CALM      30.01R
LONDON         CLOUDY    35  21  56 NW9       30.01R WCI  28
SOMERSET       NOT AVBL
MIDDLESBORO    CLOUDY    37  26  64 N7        30.00R WCI  31
MONTICELLO     CLOUDY    35  24  64 NW3       30.03F
$$





USA.gov is the U.S. government's official web portal to all federal, state and local government web resources and services.